TimeCDT,TemperatureF,Dew PointF,Humidity,Sea Level PressureIn,VisibilityMPH,Wind Direction,Wind SpeedMPH,Gust SpeedMPH,PrecipitationIn,Events,Conditions,WindDirDegrees,DateUTC
12:51 AM,66.0,64.9,96,29.93,9.0,ESE,9.2,-,0.00,Rain,Light Rain,110,2013-04-03 05:51:00
1:42 AM,66.2,66.2,100,29.94,2.5,East,9.2,-,0.05,Rain,Heavy Rain,100,2013-04-03 06:42:00
1:51 AM,66.9,66.0,97,29.95,4.0,ESE,8.1,-,0.12,Rain,Light Rain,110,2013-04-03 06:51:00
2:17 AM,66.2,66.2,100,29.93,4.0,ESE,8.1,-,0.04,Rain,Light Rain,110,2013-04-03 07:17:00
2:37 AM,66.2,66.2,100,29.92,4.0,East,8.1,-,0.05,Rain,Light Rain,90,2013-04-03 07:37:00
2:51 AM,66.0,66.0,100,29.91,4.0,East,6.9,-,0.06,Rain,Light Rain,90,2013-04-03 07:51:00
3:39 AM,66.2,66.2,100,29.91,2.0,East,6.9,-,0.03,Rain,Light Rain,100,2013-04-03 08:39:00
3:51 AM,66.0,66.0,100,29.91,2.0,East,6.9,-,0.04,Rain,Light Rain,100,2013-04-03 08:51:00
4:00 AM,66.2,66.2,100,29.91,1.2,ESE,8.1,-,0.01,Rain,Light Rain,110,2013-04-03 09:00:00
4:51 AM,66.0,66.0,100,29.92,1.5,ESE,4.6,-,0.04,Rain,Light Rain,120,2013-04-03 09:51:00
5:00 AM,66.2,66.2,100,29.93,3.0,East,6.9,-,0.00,Rain,Light Rain,100,2013-04-03 10:00:00
5:13 AM,66.2,66.2,100,29.92,1.8,East,9.2,-,0.02,Rain,Rain,90,2013-04-03 10:13:00
5:18 AM,66.2,66.2,100,29.92,0.8,East,6.9,-,0.05,Rain,Rain,90,2013-04-03 10:18:00
5:20 AM,66.2,66.2,100,29.92,0.5,East,8.1,-,0.05,Fog-Rain,Rain,90,2013-04-03 10:20:00
5:27 AM,64.4,64.4,100,29.91,0.8,ENE,9.2,-,0.08,Rain,Rain,70,2013-04-03 10:27:00
5:29 AM,62.6,62.6,100,29.91,1.2,ENE,8.1,-,0.08,Rain,Rain,60,2013-04-03 10:29:00
5:32 AM,62.6,62.6,100,29.91,4.0,ENE,8.1,-,0.09,Rain,Light Rain,60,2013-04-03 10:32:00
5:51 AM,62.1,61.0,96,29.92,10.0,NE,5.8,-,0.09,Rain,Light Rain,50,2013-04-03 10:51:00
6:49 AM,60.8,59.0,94,29.93,8.0,ENE,8.1,-,0.09,Rain,Light Rain,70,2013-04-03 11:49:00
6:51 AM,62.1,59.0,90,29.94,8.0,East,10.4,-,0.09,Rain,Light Rain,80,2013-04-03 11:51:00
7:22 AM,62.6,60.8,94,29.89,4.0,ENE,11.5,-,0.11,Rain,Rain,70,2013-04-03 12:22:00
7:51 AM,62.1,60.1,93,29.89,5.0,ENE,16.1,-,0.20,Rain,Rain,70,2013-04-03 12:51:00
8:51 AM,61.0,61.0,100,29.91,4.0,NE,12.7,-,0.22,Rain,Rain,50,2013-04-03 13:51:00
9:15 AM,60.8,60.8,100,29.94,2.0,NE,9.2,-,0.12,Rain,Heavy Rain,50,2013-04-03 14:15:00
9:23 AM,60.8,60.8,100,29.94,1.8,NE,11.5,-,0.21,Rain,Heavy Rain,40,2013-04-03 14:23:00
9:26 AM,62.6,62.6,100,29.92,2.0,NNE,11.5,20.7,0.23,Rain,Heavy Rain,30,2013-04-03 14:26:00
9:36 AM,60.8,60.8,100,29.94,2.0,NE,9.2,-,0.29,Rain,Heavy Rain,40,2013-04-03 14:36:00
9:51 AM,61.0,61.0,100,29.98,2.5,NNE,10.4,-,0.37,Rain,Rain,30,2013-04-03 14:51:00
9:57 AM,60.8,60.8,100,29.97,2.5,NNE,10.4,-,0.03,Rain,Rain,20,2013-04-03 14:57:00
10:08 AM,62.6,62.6,100,29.99,2.5,NNE,9.2,18.4,0.10,Rain,Heavy Rain,20,2013-04-03 15:08:00
10:49 AM,60.8,60.8,100,30.01,1.2,NNE,9.2,16.1,0.34,Rain,Heavy Rain,20,2013-04-03 15:49:00
10:51 AM,61.0,61.0,100,30.01,1.2,NNE,9.2,16.1,0.35,Rain,Rain,30,2013-04-03 15:51:00
11:26 AM,60.8,60.8,100,30.03,1.2,NNW,15.0,20.7,0.24,Rain,Heavy Rain,330,2013-04-03 16:26:00
11:35 AM,62.6,62.6,100,30.02,1.2,NNE,11.5,21.9,0.35,Rain,Heavy Rain,20,2013-04-03 16:35:00
11:47 AM,62.6,62.6,100,30.00,2.0,NE,15.0,21.9,0.43,Rain,Rain,50,2013-04-03 16:47:00
11:51 AM,62.1,62.1,100,29.99,2.0,ENE,15.0,21.9,0.44,Rain,Rain,60,2013-04-03 16:51:00
12:02 PM,60.8,60.8,100,29.98,1.0,ENE,18.4,-,0.03,Rain,Rain,70,2013-04-03 17:02:00
12:12 PM,62.6,62.6,100,29.93,2.0,East,27.6,34.5,0.05,Rain,Light Rain,90,2013-04-03 17:12:00
12:20 PM,62.6,62.6,100,29.92,4.0,East,25.3,34.5,0.06,Rain,Light Rain,90,2013-04-03 17:20:00
12:51 PM,63.0,62.1,97,29.78,8.0,East,33.4,46.0,0.06,,Scattered Clouds,90,2013-04-03 17:51:00
1:51 PM,64.0,62.1,93,29.78,8.0,ESE,17.3,27.6,0.01,,Clear,110,2013-04-03 18:51:00
2:51 PM,66.0,62.1,87,29.82,9.0,SE,5.8,-,N/A,,Clear,140,2013-04-03 19:51:00
3:51 PM,66.0,62.1,87,29.83,9.0,ESE,9.2,-,N/A,,Clear,120,2013-04-03 20:51:00
4:28 PM,66.2,62.6,88,29.85,9.0,NW,8.1,-,N/A,,Mostly Cloudy,310,2013-04-03 21:28:00
4:51 PM,66.0,62.1,87,29.84,9.0,NNW,4.6,-,N/A,,Overcast,340,2013-04-03 21:51:00
5:15 PM,66.2,62.6,88,29.84,9.0,Calm,Calm,-,N/A,,Mostly Cloudy,0,2013-04-03 22:15:00
5:30 PM,64.4,60.8,88,29.85,9.0,North,3.5,-,N/A,,Scattered Clouds,360,2013-04-03 22:30:00
5:51 PM,64.0,61.0,90,29.86,8.0,NNW,3.5,-,N/A,,Clear,340,2013-04-03 22:51:00
6:51 PM,62.1,61.0,96,29.88,7.0,Calm,Calm,-,N/A,,Mostly Cloudy,0,2013-04-03 23:51:00
7:51 PM,63.0,61.0,93,29.87,7.0,NE,9.2,-,N/A,,Overcast,40,2013-04-04 00:51:00
8:51 PM,62.1,60.1,93,29.92,5.0,NE,5.8,-,N/A,,Overcast,40,2013-04-04 01:51:00
9:23 PM,60.8,59.0,94,29.95,6.0,NNW,16.1,21.9,0.00,Rain,Light Rain,330,2013-04-04 02:23:00
9:51 PM,62.1,60.1,93,29.96,6.0,NNE,11.5,20.7,0.00,Rain,Light Rain,30,2013-04-04 02:51:00
10:14 PM,60.8,59.0,94,29.96,7.0,NE,8.1,-,0.00,,Overcast,40,2013-04-04 03:14:00
10:51 PM,59.0,57.9,96,29.97,6.0,NE,4.6,-,0.00,Rain,Light Rain,40,2013-04-04 03:51:00
11:51 PM,60.1,59.0,96,29.95,6.0,NNE,5.8,-,0.00,,Overcast,30,2013-04-04 04:51:00